CAPE
4 7 8 105 91 186 134 89 108 51 47 45 43 34 8 0 0 2 3 0 11 16 36 38 40 46 55 46 8 21 12 8 51
5 8 9 46 11 110 106 111 56 69 47 50 54 21 6 0 0 0 5 21 12 5 21 22 33 49 51 55 37 12 25 17 14
6 7 10 10 16 39 37 30 19 55 62 49 25 6 0 0 0 9 22 31 36 30 20 20 30 33 44 44 46 21 13 24 17
3 6 12 24 27 36 47 31 26 55 42 29 13 8 1 0 0 0 7 26 18 41 46 42 37 26 31 18 25 18 28 26 30
2 0 10 43 41 91 55 25 27 14 17 0 0 0 0 0 0 0 3 15 8 10 5 15 19 34 46 39 25 19 10 10 21
1 0 1 41 26 50 36 29 19 0 0 0 0 0 0 0 0 3 6 8 6 6 6 7 8 8 3 5 16 22 21 20 9
0 0 0 45 28 50 35 11 0 0 0 0 0 0 0 0 0 7 9 6 7 4 5 5 4 4 2 2 3 1 1 3 7
0 0 0 20 13 25 3 0 0 0 0 0 0 0 0 0 2 10 8 8 7 3 3 1 1 0 0 0 0 0 1 0 0
0 0 0 0 2 0 0 0 0 0 0 0 0 0 0 0 0 7 7 3 2 3 1 0 0 0 0 0 0 0 0 0 0
0 0 0 0 0 0 0 0 0 0 0 0 0 0 0 0 0 1 3 2 2 1 1 0 0 0 0 0 0 0 0 0 0
0 0 0 0 0 0 0 0 0 0 0 0 0 0 0 0 0 0 2 2 1 1 0 0 0 0 0 0 0 0 0 0 0
0 0 0 0 0 0 0 0 0 0 0 0 0 0 0 0 0 0 0 0 0 0 0 0 0 0 0 0 0 0 0 0 0
0 0 0 0 0 0 0 0 0 0 0 0 0 0 0 0 0 0 0 0 0 0 0 0 0 0 0 0 0 0 0 0 0
0 0 0 0 0 0 0 0 0 0 0 0 0 0 0 0 0 0 0 0 0 0 0 0 0 0 0 0 0 0 0 0 0
0 0 0 0 0 0 0 0 0 0 0 0 0 0 0 0 0 0 0 0 0 0 0 0 0 0 0 0 0 0 0 0 0
0 0 0 0 0 0 0 0 0 0 0 0 0 0 0 0 0 0 0 0 0 0 0 0 0 0 0 0 0 0 0 0 0
0 0 0 0 0 0 0 0 0 0 0 0 0 0 0 0 0 0 0 0 0 0 0 0 0 0 0 0 0 0 0 0 0
0 0 0 0 0 0 0 0 0 0 0 0 0 0 0 0 0 0 0 0 0 0 0 0 0 0 0 0 0 0 0 0 0
0 0 0 0 0 0 0 0 0 0 0 0 0 0 0 0 0 0 0 0 0 0 0 0 0 0 0 0 0 0 0 0 0
0 0 0 0 0 0 0 0 0 0 0 0 0 0 0 0 0 0 0 0 0 0 0 0 0 0 0 0 0 0 0 0 0
CIN
-0 -0 -0 -57 -67 -19 -24 -45 -38 -1 -1 -1 -0 -2 -5 -0 -0 -4 -2 -0 -1 -0 -0 -0 -0 -0 -0 -0 -0 -0 -0 -3 -76
-0 -0 -0 -82 -0 -58 -62 -67 -0 -0 -0 -0 -0 -12 -16 -0 -0 -0 -3 -1 -0 -0 -0 -0 -0 -0 -0 -0 -0 -0 -0 -0 -73
-0 -0 -0 -0 -1 -2 -0 -0 -0 -0 -0 -0 -6 -13 -0 -0 -0 -6 -4 -3 -1 -0 -0 -1 -2 -1 -0 -0 -0 -0 -0 -0 -0
-0 -0 -0 -0 -0 -0 -0 -0 -0 -0 -1 -3 -16 -23 -9 -0 -0 -0 -3 -3 -0 -0 -0 -0 -0 -1 -2 -0 -0 -0 -0 -0 -0
-0 -0 -0 -14 -0 -39 -0 -0 -0 -2 -4 -1 -0 -0 -0 -0 -0 -0 -7 -6 -3 -0 -1 -0 -1 -0 -0 -0 -0 -0 -0 -0 -0
-0 -0 -0 -0 -0 -0 -0 -1 -0 -0 -0 -0 -0 -0 -0 -0 -0 -2 -1 -0 -1 -1 -0 -0 -0 -0 -0 -1 -0 -1 -0 -0 -0
-0 -0 -0 -0 -0 -0 -0 -0 -0 -0 -0 -0 -0 -0 -0 -0 -0 -1 -0 -0 -0 -1 -1 -1 -1 -1 -1 -0 -0 -1 -0 -0 -0
-0 -0 -0 -3 -5 -5 -0 -0 -0 -0 -0 -0 -0 -0 -0 -0 -3 -1 -0 -1 -0 -0 -1 -1 -0 -0 -0 -0 -0 -0 -0 -0 -0
-0 -0 -0 -0 -16 -0 -0 -0 -0 -0 -0 -0 -0 -0 -0 -0 -0 -0 -0 -0 -0 -0 -0 -0 -0 -0 -0 -0 -0 -0 -0 -0 -0
-0 -0 -0 -0 -0 -0 -0 -0 -0 -0 -0 -0 -0 -0 -0 -0 -0 -3 -0 -0 -1 -0 -1 -0 -0 -0 -0 -0 -0 -0 -0 -0 -0
-0 -0 -0 -0 -0 -0 -0 -0 -0 -0 -0 -0 -0 -0 -0 -0 -0 -0 -1 -0 -0 -1 -0 -0 -0 -0 -0 -0 -0 -0 -0 -0 -0
-0 -0 -0 -0 -0 -0 -0 -0 -0 -0 -0 -0 -0 -0 -0 -0 -0 -0 -0 -0 -0 -0 -0 -0 -0 -0 -0 -0 -0 -0 -0 -0 -0
-0 -0 -0 -0 -0 -0 -0 -0 -0 -0 -0 -0 -0 -0 -0 -0 -0 -0 -0 -0 -0 -0 -0 -0 -0 -0 -0 -0 -0 -0 -0 -0 -0
-0 -0 -0 -0 -0 -0 -0 -0 -0 -0 -0 -0 -0 -0 -0 -0 -0 -0 -0 -0 -0 -0 -0 -0 -0 -0 -0 -0 -0 -0 -0 -0 -0
-0 -0 -0 -0 -0 -0 -0 -0 -0 -0 -0 -0 -0 -0 -0 -0 -0 -0 -0 -0 -0 -0 -0 -0 -0 -0 -0 -0 -0 -0 -0 -0 -0
-0 -0 -0 -0 -0 -0 -0 -0 -0 -0 -0 -0 -0 -0 -0 -0 -0 -0 -0 -0 -0 -0 -0 -0 -0 -0 -0 -0 -0 -0 -0 -0 -0
-0 -0 -0 -0 -0 -0 -0 -0 -0 -0 -0 -0 -0 -0 -0 -0 -0 -0 -0 -0 -0 -0 -0 -0 -0 -0 -0 -0 -0 -0 -0 -0 -0
-0 -0 -0 -0 -0 -0 -0 -0 -0 -0 -0 -0 -0 -0 -0 -0 -0 -0 -0 -0 -0 -0 -0 -0 -0 -0 -0 -0 -0 -0 -0 -0 -0
-0 -0 -0 -0 -0 -0 -0 -0 -0 -0 -0 -0 -0 -0 -0 -0 -0 -0 -0 -0 -0 -0 -0 -0 -0 -0 -0 -0 -0 -0 -0 -0 -0
-0 -0 -0 -0 -0 -0 -0 -0 -0 -0 -0 -0 -0 -0 -0 -0 -0 -0 -0 -0 -0 -0 -0 -0 -0 -0 -0 -0 -0 -0 -0 -0 -0
Wind_Speed
12 13 14 14 15 15 16 17 18 18 18 19 20 20 21 22 22 22 24 26 28 29 31 33 34 34 35 35 35 35 36 34 31
11 12 14 13 14 14 16 17 17 18 18 19 19 19 20 20 21 22 23 26 29 29 29 31 32 33 33 34 34 34 34 33 30
9 11 13 13 14 14 15 16 17 17 18 18 19 19 19 19 20 21 23 26 28 30 30 30 30 31 32 32 33 34 33 32 30
6 8 11 12 13 14 15 15 16 17 17 17 18 18 18 19 20 20 22 24 26 28 29 30 30 30 30 30 31 32 32 30 29
5 6 8 11 12 14 15 15 14 15 16 16 15 16 16 18 19 20 22 23 25 26 27 28 28 29 30 30 30 30 31 29 27
3 5 6 9 10 12 13 13 13 13 14 14 14 14 14 16 18 19 22 23 24 25 26 27 28 28 28 29 29 29 30 29 28
2 3 4 7 9 10 11 12 11 12 12 12 13 14 15 16 18 20 21 23 24 25 26 26 27 27 28 28 29 29 29 29 28
4 3 3 2 5 6 8 9 10 11 12 13 13 14 16 17 18 20 21 21 22 23 24 25 25 26 26 27 27 28 28 28 28
4 3 3 1 2 5 7 8 10 11 12 13 14 15 16 17 18 19 20 21 21 22 23 23 24 24 25 26 26 26 26 27 27
6 4 3 1 2 4 6 8 10 11 12 13 14 15 16 17 17 18 19 20 20 21 22 22 22 23 24 24 25 25 25 26 26
8 5 3 3 3 5 6 7 9 10 11 12 13 14 15 16 16 16 17 18 19 19 20 20 21 22 22 23 23 24 24 25 25
9 7 5 5 4 4 5 5 7 9 9 11 12 12 13 14 15 15 16 16 17 17 18 18 19 20 21 21 22 23 23 24 24
10 8 7 6 4 4 5 6 6 8 9 10 10 11 12 12 13 14 14 15 15 16 16 17 17 18 19 20 21 22 22 23 24
10 9 9 6 5 4 7 5 6 7 7 8 8 9 9 10 11 12 13 13 14 15 15 16 16 17 18 19 20 21 22 23 23
11 11 10 7 5 5 4 6 1 3 5 5 7 8 9 9 10 11 12 12 13 13 14 15 15 16 17 18 19 20 21 22 23
12 14 11 10 8 6 6 4 4 1 1 4 7 9 11 11 11 11 12 12 13 13 13 13 14 14 15 17 18 20 21 22 23
14 12 9 10 8 7 7 7 5 6 2 6 7 10 12 12 12 12 12 12 13 13 13 14 14 15 16 16 18 20 21 22 23
16 15 14 9 9 8 8 7 6 5 7 5 11 14 16 12 14 13 13 13 13 14 14 15 16 16 16 18 18 19 21 22 24
18 16 16 13 9 9 9 8 8 6 7 10 15 15 13 15 17 17 16 14 15 15 16 16 17 17 16 17 19 20 21 22 23
18 20 17 15 13 11 10 9 9 10 10 11 13 14 15 16 18 21 19 17 17 18 20 20 20 19 19 19 20 22 22 22 23
Wind_Direction
60 57 61 54 50 52 53 49 47 48 47 49 50 50 50 46 44 39 42 43 41 39 39 42 42 41 41 41 42 38 38 34 30
58 58 61 60 53 51 55 55 50 50 51 54 50 48 48 45 45 41 41 43 42 41 40 41 41 41 41 41 39 40 36 34 31
51 56 62 59 58 57 58 55 55 54 55 54 53 51 50 45 42 39 42 39 39 43 45 43 42 40 39 40 37 39 37 33 31
45 47 55 58 56 66 63 59 59 58 59 56 54 52 48 46 42 37 36 37 40 41 42 43 44 41 38 37 36 37 36 33 30
42 39 50 57 51 69 64 61 56 56 56 55 51 47 43 40 37 35 36 41 42 42 40 42 41 39 39 38 36 34 34 31 28
9 28 54 62 53 61 66 58 51 50 50 52 51 45 36 34 32 36 45 47 48 46 44 42 42 41 38 37 35 35 35 31 28
295 346 47 68 57 64 63 57 46 43 43 45 46 44 41 41 44 49 50 50 50 49 47 44 42 42 40 39 38 36 34 33 29
260 286 315 23 44 52 52 39 36 46 55 54 50 48 48 50 50 53 53 50 48 47 45 44 42 40 39 37 35 34 33 33 31
237 261 273 294 38 65 54 51 51 53 57 59 60 58 56 52 52 54 52 51 49 47 46 43 41 39 37 36 33 31 30 30 29
234 249 255 200 101 88 75 65 60 61 62 61 63 60 57 53 49 49 51 51 49 47 45 43 39 36 35 32 31 28 26 25 25
235 237 219 163 126 109 92 79 68 63 64 63 59 57 54 51 48 44 46 47 47 46 43 40 37 35 32 28 26 26 23 22 21
232 232 203 171 168 122 99 80 73 68 60 62 58 55 51 47 43 41 37 37 40 40 37 35 33 30 27 24 21 20 19 16 15
231 226 198 190 173 133 122 110 89 79 73 66 55 53 47 43 40 36 34 30 30 29 32 30 28 24 22 19 16 13 12 10 9
233 219 199 201 193 158 134 126 108 93 71 57 42 29 28 24 25 26 23 21 20 20 20 21 21 18 15 14 11 9 7 6 4
231 219 213 208 205 187 178 147 141 98 79 45 24 12 1 1 3 7 7 5 6 9 12 10 10 11 11 8 5 2 2 1 359
232 228 222 232 226 204 187 204 173 241 32 17 354 348 336 341 342 346 348 352 349 354 1 1 1 360 358 359 357 357 357 355 353
231 225 221 235 229 212 190 187 230 273 263 315 337 330 328 329 326 327 332 336 335 337 346 344 346 345 344 347 350 348 350 351 350
234 235 239 232 233 216 199 195 224 234 267 296 323 318 315 320 321 315 316 320 326 329 333 332 331 334 335 336 340 343 344 343 342
235 244 246 249 236 227 219 226 243 243 249 288 308 315 326 320 320 315 311 315 316 319 322 325 323 324 327 330 332 334 337 339 340
242 250 253 251 255 244 231 232 249 260 268 277 299 310 321 323 321 316 314 312 315 317 318 316 316 318 319 321 324 326 331 335 337